Location: Unspecified
(0.0000°N, 0.0000°E)
Time: 09:04:33
(UTC+00:00)

ARIANE 2 DEB - Pass Details

Date: 13 March 2026
Orbit: 598 x 35366 km, 8.4° (Epoch: 18 September)

Event Time Altitude Azimuth Distance (km) Brightness Sun altitude
Exits shadow 01:55:19 64° 43° (NE) 5,163 ? -63.4°
Maximum altitude 09:26:51 68° 102° (ESE) 26,044 ? 49.3°
Drops below altitude 10° 11:18:35 10° 101° (E) 9,504 ? 77.0°
Sets 11:22:53 0° 100° (E) 9,302 ? 78.0°
